User: anonymous   Login
Location: Oshawa
(43.9000°N, 78.8670°W)
Time: 17:51:23
(UTC-05:00)
Language:

Cosmos 2333 Rocket - Orbit

View from above orbital plane
View from above orbital plane
View from above satellite
View from above satellite

Ground track
Ground track

The orbit data is extracted from the following two-line orbital elements,

1 24298U 96051B   17324.58784318 -.00000178 +00000-0 -70017-4 0  9994
2 24298 070.8463 092.5031 0017624 302.0294 057.9114 14.12482950093640
Epoch (UTC): 20 November 2017 14:06:29
Eccentricity: 0.0017624
inclination: 70.8463°
perigee height: 838 km
apogee height: 863 km
right ascension of ascending node: 92.5031°
argument of perigee: 302.0294°
revolutions per day: 14.12482950
mean anomaly at epoch: 57.9114°
orbit number at epoch: 9364

The dashed part of the orbit path shows where the satellite is in the earth's shadow,  

DLR